Location: Moscow Pond
(43.6842°N, 73.2366°W)
Time: 06:53:40
(UTC+00:00)

Resurs 01 Rocket - Pass Details

Date: 08 November 2025
Orbit: 626 x 636 km, 97.7° (Epoch: 06 December)

Event Time Altitude Azimuth Distance (km) Brightness Sun altitude
Exits shadow 00:58:01 14° 317° (NW) 1,801 4.4 -36.7°
Drops below altitude 10° 00:58:44 10° 323° (NW) 2,033 4.7 -36.9°
Sets 01:01:15 0° 336° (NNW) 2,947 5.5 -37.3°
